Regional Weather Roundup
Issued by NWS Spokane, WA

Home | Current Version | Previous Version | Text Only | Print | Product List | Glossary On
Versions: 1 2 3 4 5 6 7 8 9 10 11 12 13 14 15 16 17 18 19 20 21 22 23 24 25 26 27 28 29 30 31 32 33 34 35 36 37 38 39 40 41 42 43 44 45 46 47 48 49 50
000
NZUS01 KOTX 262100
RWROTX
EASTERN WASHINGTON/NORTHERN IDAHO ROUNDUP
NATIONAL WEATHER SERVICE, SPOKANE WA
200 PM PDT SUN APR 26 2015

Note: "fair" indicated few or no clouds below 12,000 feet with no
significant weather and/or obstructions to visibility.

...NORTHEAST WASHINGTON AND NORTHERN IDAHO PANHANDLE...

CITY           SKY/WX    TMP DP  RH WIND       PRES   REMARKS
SPOKANE INTL   PTSUNNY   52  28  39 VRB5      30.18S
SPOKANE DOWNTO PTSUNNY   57  32  38 VRB3      30.19S
COEUR D ALENE  MOSUNNY   55  30  38 W10       30.19S
DEER PARK      MOSUNNY   54  30  40 S10       30.19S
SANDPOINT      SUNNY     57  28  33 S6        30.16S

...SOUTHEAST WASHINGTON AND SOUTHERN IDAHO PANHANDLE...

CITY           SKY/WX    TMP DP  RH WIND       PRES   REMARKS
WALLA WALLA    MOSUNNY   60  27  28 CALM      30.20S
PULLMAN/MOSCOW SUNNY     54  27  35 W7        30.21S
LOWELL           N/A     55  35  47 CALM      30.20R

...COLUMBIA BASIN...

CITY           SKY/WX    TMP DP  RH WIND       PRES   REMARKS
EPHRATA        SUNNY     59  26  28 MISG      30.18F
MOSES LAKE     MOSUNNY   61  25  25 S8G17     30.20F
TRI CITIES     SUNNY     63  27  25 CALM      30.21S
HERMISTON      SUNNY     63  31  30 VRB5      30.20S
PENDLETON      SUNNY     60  27  28 NW10      30.19S

...EAST SLOPES CASCADES...

CITY           SKY/WX    TMP DP  RH WIND       PRES   REMARKS
THE DALLES     PTSUNNY   66  31  27 CALM      30.19S
YAKIMA         MOSUNNY   64  24  21 SE8       30.18F
ELLENSBURG     PTSUNNY   61  22  22 VRB5      30.18S
WENATCHEE      MOSUNNY   61  26  26 VRB5      30.17F
OMAK           SUNNY     59  28  30 VRB5      30.16F

...SOUTHERN BRITISH COLUMBIA...

CITY           SKY/WX    TMP DP  RH WIND       PRES   REMARKS

...WESTERN MONTANA...

CITY           SKY/WX    TMP DP  RH WIND       PRES   REMARKS
MISSOULA       CLOUDY    47  36  65 VRB3      30.16R

...NEIGHBORING CITIES...

CITY           SKY/WX    TMP DP  RH WIND       PRES   REMARKS
SEATTLE        CLOUDY    57  40  52 SW6       30.24S



USA.gov is the U.S. government's official web portal to all federal, state and local government web resources and services.